| time (UTC) | temp C | wind direction | speed KPH | gust KPH | rain 1hr cm | rain 24hr cm | rain mn cm | humidity % | barometer mb |
| 20260507105732 | 13 | 274 | 0.0 | 0.0 | 0.00 | 0.00 | 0.00 | 89 | 1016.7 |
| 20260507104706 | 14 | 274 | 0.0 | 0.0 | 0.00 | 0.00 | 0.00 | 89 | 1016.9 |
| 20260507102541 | 14 | 274 | 0.0 | 0.0 | 0.00 | 0.00 | 0.00 | 88 | 1017.0 |
| 20260507101548 | 15 | 274 | 0.0 | 0.0 | 0.00 | 0.00 | 0.00 | 89 | 1017.0 |
| 20260507100527 | 15 | 274 | 0.0 | 0.0 | 0.00 | 0.00 | 0.00 | 89 | 1017.1 |
| 20260507095524 | 15 | 274 | 0.0 | 0.0 | 0.00 | 0.00 | 0.00 | 89 | 1017.2 |
| 20260507094518 | 15 | 274 | 0.0 | 0.0 | 0.00 | 0.00 | 0.00 | 89 | 1017.3 |
| 20260507093448 | 15 | 275 | 0.0 | 0.0 | 0.00 | 0.00 | 0.00 | 89 | 1017.4 |
| 20260507092433 | 15 | 274 | 0.0 | 0.0 | 0.00 | 0.00 | 0.00 | 90 | 1017.5 |
| 20260507091402 | 15 | 274 | 0.0 | 0.0 | 0.00 | 0.00 | 0.00 | 90 | 1017.5 |
| 20260507090358 | 15 | 274 | 0.0 | 0.0 | 0.00 | 0.00 | 0.00 | 90 | 1017.7 |
| 20260507085409 | 15 | 274 | 0.0 | 0.0 | 0.00 | 0.00 | 0.00 | 90 | 1017.6 |
| 20260507084345 | 15 | 274 | 0.0 | 0.0 | 0.00 | 0.00 | 0.00 | 89 | 1017.7 |
| 20260507083402 | 15 | 274 | 0.0 | 0.0 | 0.00 | 0.00 | 0.00 | 89 | 1017.8 |
| 20260507082327 | 15 | 274 | 0.0 | 0.0 | 0.00 | 0.00 | 0.00 | 89 | 1017.9 |
| 20260507081330 | 15 | 274 | 0.0 | 0.0 | 0.00 | 0.00 | 0.00 | 89 | 1017.9 |
| 20260507080324 | 15 | 274 | 0.0 | 0.0 | 0.00 | 0.00 | 0.00 | 89 | 1018.0 |
| 20260507075258 | 15 | 274 | 0.0 | 0.0 | 0.00 | 0.00 | 0.00 | 90 | 1018.1 |
| 20260507074247 | 14 | 274 | 0.0 | 0.0 | 0.00 | 0.00 | 0.00 | 89 | 1018.3 |
| 20260507073233 | 14 | 172 | 0.0 | 0.0 | 0.00 | 0.00 | 0.00 | 89 | 1018.3 |
| 20260507072203 | 14 | 172 | 0.0 | 0.0 | 0.00 | 0.00 | 0.00 | 89 | 1018.4 |
| 20260507071127 | 14 | 172 | 0.0 | 0.0 | 0.00 | 0.00 | 0.00 | 89 | 1018.4 |
| 20260507070100 | 14 | 172 | 0.0 | 0.0 | 0.00 | 0.00 | 0.00 | 89 | 1018.4 |
| 20260507065118 | 14 | 172 | 0.0 | 0.0 | 0.00 | 0.00 | 0.00 | 89 | 1018.5 |
| 20260507064113 | 14 | 172 | 0.0 | 0.0 | 0.00 | 0.00 | 0.00 | 87 | 1018.4 |
| 20260507063116 | 14 | 172 | 0.0 | 0.0 | 0.00 | 0.00 | 0.00 | 87 | 1018.6 |
| 20260507062040 | 14 | 172 | 0.0 | 0.0 | 0.00 | 0.00 | 0.00 | 87 | 1018.5 |
| 20260507054649 | 15 | 172 | 0.0 | 0.0 | 0.00 | 0.00 | 0.00 | 86 | 1018.6 |
| 20260507053648 | 15 | 172 | 0.0 | 0.0 | 0.00 | 0.00 | 0.00 | 86 | 1018.6 |
| 20260507052709 | 15 | 172 | 0.0 | 0.0 | 0.00 | 0.00 | 0.00 | 85 | 1018.6 |
| 20260507051653 | 15 | 172 | 0.0 | 0.0 | 0.00 | 0.00 | 0.00 | 85 | 1018.5 |
| 20260507050648 | 15 | 172 | 0.0 | 0.0 | 0.00 | 0.00 | 0.00 | 85 | 1018.4 |
| 20260507045612 | 16 | 172 | 0.0 | 0.0 | 0.00 | 0.00 | 0.00 | 85 | 1018.5 |
| 20260507044607 | 16 | 172 | 0.0 | 0.0 | 0.00 | 0.00 | 0.00 | 85 | 1018.4 |
| 20260507043624 | 16 | 172 | 0.0 | 0.0 | 0.00 | 0.00 | 0.00 | 85 | 1018.5 |
| 20260507042610 | 16 | 172 | 0.0 | 0.0 | 0.00 | 0.00 | 0.00 | 85 | 1018.5 |
| 20260507041626 | 16 | 172 | 0.0 | 0.0 | 0.00 | 0.00 | 0.00 | 85 | 1018.5 |
| 20260507040635 | 16 | 172 | 0.0 | 0.0 | 0.00 | 0.00 | 0.00 | 85 | 1018.4 |
| 20260507035643 | 16 | 172 | 0.0 | 0.0 | 0.00 | 0.00 | 0.00 | 84 | 1018.4 |
| 20260507032432 | 17 | 172 | 0.0 | 0.0 | 0.00 | 0.00 | 0.00 | 83 | 1018.1 |
| 20260507031413 | 17 | 172 | 0.0 | 0.0 | 0.00 | 0.00 | 0.00 | 83 | 1018.1 |
| 20260507024101 | 17 | 172 | 0.0 | 0.0 | 0.00 | 0.00 | 0.00 | 79 | 1017.8 |
| 20260507021917 | 18 | 109 | 0.0 | 0.0 | 0.00 | 0.00 | 0.00 | 76 | 1017.7 |
| 20260507020931 | 19 | 119 | 0.0 | 0.0 | 0.00 | 0.00 | 0.00 | 75 | 1017.7 |
| 20260507015948 | 19 | 90 | 0.0 | 0.0 | 0.00 | 0.00 | 0.00 | 72 | 1017.6 |
| 20260507014943 | 20 | 113 | 0.0 | 0.0 | 0.00 | 0.00 | 0.00 | 70 | 1017.5 |
| 20260507012808 | 20 | 116 | 0.0 | 0.0 | 0.00 | 0.00 | 0.00 | 65 | 1017.5 |
| 20260507011744 | 20 | 104 | 0.0 | 0.0 | 0.00 | 0.00 | 0.00 | 66 | 1017.5 |
| 20260507010725 | 20 | 159 | 0.0 | 0.0 | 0.00 | 0.00 | 0.00 | 65 | 1017.4 |
| 20260507005707 | 20 | 91 | 0.0 | 0.0 | 0.00 | 0.00 | 0.00 | 68 | 1017.4 |
| 20260507004647 | 20 | 91 | 0.0 | 0.0 | 0.00 | 0.00 | 0.00 | 67 | 1017.4 |
| 20260507003639 | 20 | 127 | 0.0 | 0.0 | 0.00 | 0.00 | 0.00 | 69 | 1017.4 |
| 20260507002630 | 20 | 175 | 0.0 | 0.0 | 0.00 | 0.00 | 0.00 | 67 | 1017.4 |
| 20260507001641 | 20 | 100 | 0.0 | 0.0 | 0.00 | 0.00 | 0.00 | 68 | 1017.3 |
| 20260506235515 | 21 | 128 | 0.0 | 1.6 | 0.00 | 0.00 | 0.00 | 66 | 1017.1 |
| 20260506232153 | 22 | 117 | 0.0 | 0.0 | 0.00 | 0.00 | 0.00 | 62 | 1017.2 |
| 20260506231148 | 22 | 151 | 0.0 | 6.4 | 0.00 | 0.00 | 0.00 | 63 | 1017.2 |
| 20260506230152 | 22 | 89 | 0.0 | 0.0 | 0.00 | 0.00 | 0.00 | 63 | 1017.3 |
| 20260506225126 | 22 | 147 | 0.0 | 8.0 | 0.00 | 0.00 | 0.00 | 63 | 1017.4 |
| 20260506224131 | 22 | 98 | 0.0 | 0.0 | 0.00 | 0.00 | 0.00 | 62 | 1017.4 |
| 20260506223111 | 22 | 150 | 0.0 | 0.0 | 0.00 | 0.00 | 0.00 | 62 | 1017.5 |
| 20260506222134 | 21 | 130 | 0.0 | 0.0 | 0.00 | 0.00 | 0.00 | 64 | 1017.5 |
| 20260506221143 | 21 | 222 | 0.0 | 0.0 | 0.00 | 0.00 | 0.00 | 64 | 1017.6 |
| 20260506220108 | 21 | 146 | 0.0 | 0.0 | 0.00 | 0.00 | 0.00 | 64 | 1017.7 |
| 20260506215102 | 21 | 123 | 0.0 | 0.0 | 0.00 | 0.00 | 0.00 | 65 | 1017.7 |
| 20260506214026 | 21 | 119 | 0.0 | 6.4 | 0.00 | 0.00 | 0.00 | 64 | 1017.7 |
| 20260506213037 | 21 | 114 | 0.0 | 8.0 | 0.00 | 0.00 | 0.00 | 64 | 1017.8 |
| 20260506210858 | 21 | 95 | 0.0 | 11.3 | 0.00 | 0.00 | 0.00 | 64 | 1018.0 |
| 20260506205822 | 21 | 119 | 0.0 | 0.0 | 0.00 | 0.00 | 0.00 | 65 | 1018.0 |
| 20260506204750 | 21 | 95 | 0.0 | 11.3 | 0.00 | 0.00 | 0.00 | 64 | 1018.1 |
| 20260506203725 | 21 | 83 | 0.0 | 0.0 | 0.00 | 0.00 | 0.00 | 64 | 1018.1 |
| 20260506200350 | 20 | 129 | 0.0 | 0.0 | 0.00 | 0.00 | 0.00 | 65 | 1018.3 |
| 20260506195345 | 21 | 114 | 0.0 | 4.8 | 0.00 | 0.00 | 0.00 | 65 | 1018.5 |
| 20260506194323 | 21 | 76 | 0.0 | 3.2 | 0.00 | 0.00 | 0.00 | 66 | 1018.6 |
| 20260506193305 | 21 | 131 | 0.0 | 9.7 | 0.00 | 0.00 | 0.00 | 64 | 1018.7 |
| 20260506192241 | 21 | 82 | 0.0 | 12.9 | 0.00 | 0.00 | 0.00 | 64 | 1018.8 |
| 20260506191216 | 21 | 100 | 0.0 | 3.2 | 0.00 | 0.00 | 0.00 | 64 | 1018.7 |
| 20260506190230 | 21 | 58 | 0.0 | 0.0 | 0.00 | 0.00 | 0.00 | 64 | 1018.7 |
| 20260506185239 | 21 | 113 | 0.0 | 0.0 | 0.00 | 0.00 | 0.00 | 65 | 1018.7 |
| 20260506183110 | 20 | 78 | 0.0 | 0.0 | 0.00 | 0.00 | 0.00 | 65 | 1019.0 |
| 20260506182040 | 20 | 69 | 0.0 | 0.0 | 0.00 | 0.00 | 0.00 | 65 | 1019.1 |
| 20260506181038 | 20 | 128 | 0.0 | 0.0 | 0.00 | 0.00 | 0.00 | 65 | 1019.1 |
| 20260506180003 | 20 | 170 | 0.0 | 0.0 | 0.00 | 0.00 | 0.00 | 66 | 1019.3 |
| 20260506175017 | 20 | 109 | 0.0 | 0.0 | 0.00 | 0.00 | 0.00 | 66 | 1019.4 |
| 20260506173943 | 20 | 61 | 0.0 | 0.0 | 0.00 | 0.03 | 0.00 | 64 | 1019.4 |
| 20260506172930 | 20 | 150 | 0.0 | 0.0 | 0.00 | 0.03 | 0.00 | 65 | 1019.4 |
| 20260506171947 | 20 | 154 | 0.0 | 0.0 | 0.00 | 0.03 | 0.00 | 65 | 1019.4 |
| 20260506170911 | 20 | 101 | 0.0 | 1.6 | 0.00 | 0.03 | 0.00 | 65 | 1019.4 |
| 20260506165928 | 20 | 223 | 0.0 | 0.0 | 0.00 | 0.03 | 0.00 | 62 | 1019.4 |
| 20260506164903 | 20 | 260 | 0.0 | 0.0 | 0.00 | 0.03 | 0.00 | 66 | 1019.5 |
| 20260506163900 | 19 | 234 | 0.0 | 0.0 | 0.00 | 0.03 | 0.00 | 66 | 1019.5 |
| 20260506160546 | 18 | 121 | 0.0 | 0.0 | 0.00 | 0.03 | 0.00 | 71 | 1019.5 |
| 20260506155559 | 18 | 178 | 0.0 | 0.0 | 0.00 | 0.03 | 0.00 | 72 | 1019.4 |
| 20260506154532 | 18 | 182 | 0.0 | 0.0 | 0.00 | 0.03 | 0.00 | 73 | 1019.4 |
| 20260506153513 | 17 | 5 | 0.0 | 0.0 | 0.00 | 0.03 | 0.00 | 74 | 1019.5 |
| 20260506150157 | 17 | 5 | 0.0 | 0.0 | 0.00 | 0.03 | 0.00 | 74 | 1019.4 |
| 20260506145204 | 16 | 13 | 0.0 | 0.0 | 0.00 | 0.03 | 0.00 | 75 | 1019.4 |
| 20260506144224 | 16 | 14 | 0.0 | 0.0 | 0.00 | 0.03 | 0.00 | 80 | 1019.3 |
| 20260506143201 | 15 | 105 | 0.0 | 0.0 | 0.00 | 0.03 | 0.00 | 87 | 1019.2 |
| 20260506142128 | 13 | 105 | 0.0 | 0.0 | 0.00 | 0.03 | 0.00 | 91 | 1019.1 |
| 20260506135916 | 12 | 105 | 0.0 | 0.0 | 0.00 | 0.03 | 0.00 | 95 | 1019.1 |
| 20260506133656 | 10 | 103 | 0.0 | 0.0 | 0.00 | 0.03 | 0.00 | 91 | 1018.9 |
| 20260506132620 | 10 | 103 | 0.0 | 0.0 | 0.00 | 0.08 | 0.00 | 92 | 1018.8 |
| 20260506131621 | 10 | 102 | 0.0 | 0.0 | 0.00 | 0.10 | 0.00 | 91 | 1018.7 |
| 20260506124336 | 11 | 103 | 0.0 | 0.0 | 0.00 | 0.20 | 0.00 | 90 | 1018.5 |
| 20260506122221 | 10 | 103 | 0.0 | 0.0 | 0.00 | 0.20 | 0.00 | 91 | 1018.4 |
| 20260506121228 | 10 | 103 | 0.0 | 0.0 | 0.00 | 0.28 | 0.00 | 90 | 1018.4 |
| 20260506120241 | 10 | 103 | 0.0 | 0.0 | 0.00 | 0.46 | 0.00 | 90 | 1018.5 |
| 20260506115231 | 11 | 103 | 0.0 | 0.0 | 0.00 | 0.61 | 0.00 | 89 | 1018.5 |
| 20260506114254 | 11 | 103 | 0.0 | 0.0 | 0.00 | 0.61 | 0.00 | 89 | 1018.4 |
| 20260506112123 | 11 | 103 | 0.0 | 0.0 | 0.00 | 0.64 | 0.00 | 89 | 1018.3 |